FW8702 Weather Reports


Display with metric or nautical units.
time (UTC)temp
F
wind
direction
speed
MPH
gust
MPH
rain 1hr
in
rain 24hr
in
rain mn
in
humidity
%
barometer
mb
20260504050023 52 237 0.0 0.0 0.00 0.00 0.00 87 1018.5
20260504044555 52 237 0.0 0.0 0.00 0.00 0.00 87 1018.6
20260504043017 52 237 0.0 0.0 0.00 0.00 0.00 86 1018.6
20260504041530 52 237 0.0 0.0 0.00 0.00 0.00 86 1018.5
20260504040030 52 237 0.0 0.0 0.00 0.00 0.00 86 1018.4
20260504034554 53 237 0.0 0.0 0.00 0.00 0.00 86 1018.3
20260504033009 53 237 0.0 0.0 0.00 0.00 0.00 85 1018.2
20260504031547 53 237 0.0 0.0 0.00 0.00 0.00 85 1018.5
20260504030112 53 237 0.0 0.0 0.00 0.00 0.00 83 1018.5
20260504024524 54 237 0.0 0.0 0.00 0.00 0.00 83 1018.5
20260504023018 54 237 0.0 0.0 0.00 0.00 0.00 83 1018.6
20260504021547 54 237 0.0 0.0 0.00 0.00 0.00 82 1018.5
20260504020050 54 237 0.0 0.0 0.00 0.00 0.00 83 1018.5
20260504014512 54 237 0.0 0.0 0.00 0.00 0.00 84 1018.4
20260504013041 54 237 0.0 0.0 0.00 0.00 0.00 83 1018.6
20260504011508 54 237 0.0 0.0 0.00 0.00 0.00 83 1018.5
20260504010008 54 237 0.0 0.0 0.00 0.00 0.00 83 1018.6
20260504004511 55 237 0.0 0.0 0.00 0.00 0.00 83 1018.6
20260504003043 55 237 0.0 0.0 0.00 0.00 0.00 83 1018.9
20260504001554 55 237 0.0 0.0 0.00 0.00 0.00 82 1019.0
20260504000004 55 146 0.0 0.0 0.00 0.00 0.00 82 1019.0
20260503234514 56 146 0.0 0.0 0.00 0.00 0.00 81 1019.2
20260503233043 56 146 0.0 0.0 0.00 0.00 0.00 81 1019.1
20260503231550 56 146 0.0 0.0 0.00 0.00 0.00 81 1019.3
20260503230001 56 146 0.0 0.0 0.00 0.00 0.00 79 1019.4
20260503224601 56 146 0.0 0.0 0.00 0.00 0.00 79 1019.3
20260503223024 57 146 0.0 0.0 0.00 0.00 0.00 78 1019.3
20260503221541 57 146 0.0 0.0 0.00 0.00 0.00 78 1019.3
20260503220043 57 146 0.0 0.0 0.00 0.00 0.00 78 1019.1
20260503214507 58 146 0.0 0.0 0.00 0.00 0.00 75 1019.2
20260503213034 58 146 0.0 0.0 0.00 0.00 0.00 74 1019.1
20260503211606 58 146 0.0 0.0 0.00 0.00 0.00 75 1019.1
20260503210105 58 178 0.0 0.0 0.00 0.00 0.00 76 1019.0
20260503204515 58 178 0.0 0.0 0.00 0.00 0.00 76 1019.0
20260503203045 59 178 0.0 1.0 0.00 0.00 0.00 75 1018.9
20260503201510 59 241 0.0 0.0 0.00 0.00 0.00 74 1018.9
20260503200025 59 241 0.0 0.0 0.00 0.00 0.00 73 1018.8
20260503194520 60 241 0.0 0.0 0.00 0.00 0.00 73 1018.6
20260503193030 61 241 0.0 0.0 0.00 0.00 0.00 73 1018.6
20260503191557 62 241 0.0 0.0 0.00 0.00 0.00 71 1018.4
20260503190038 64 241 0.0 0.0 0.00 0.00 0.00 69 1018.1
20260503184624 65 241 0.0 0.0 0.00 0.00 0.00 69 1017.9
20260503183025 66 241 0.0 0.0 0.00 0.00 0.00 66 1017.8
20260503181534 68 241 0.0 0.0 0.00 0.00 0.00 66 1017.9
20260503180047 69 241 0.0 0.0 0.00 0.00 0.00 62 1017.9
20260503174512 70 241 0.0 0.0 0.00 0.00 0.00 58 1017.9
20260503173039 71 241 0.0 0.0 0.00 0.00 0.00 51 1017.9
20260503171502 71 241 0.0 0.0 0.00 0.00 0.00 51 1017.9
20260503081531 66 315 0.0 2.0 0.00 0.00 0.00 64 1020.7
20260503071514 64 290 0.0 0.0 0.00 0.00 0.00 66 1021.1
20260503054539 57 310 0.0 0.0 0.00 0.00 0.00 79 1021.3
20260503053101 56 310 0.0 0.0 0.00 0.00 0.00 80 1021.1